Regional Weather Roundup
Issued by NWS Newport/Morehead, NC

Current Version | Previous Version | Graphics & Text | Print | Product List | Glossary On
Versions: 1 2 3 4 5 6 7 8 9 10 11 12 13 14 15 16 17 18 19 20 21 22 23 24 25 26 27 28 29 30 31 32 33 34 35 36 37 38 39 40 41 42 43 44 45 46 47 48 49 50
000 ASUS42 KMHX 241713 RWRMHX WEATHER ROUNDUP FOR EASTERN NORTH CAROLINA NATIONAL WEATHER SERVICE NEWPORT/MOREHEAD CITY NC 1200 PM EST SAT FEB 24 2018 NOTE: "FAIR" INDICATES FEW OR NO CLOUDS BELOW 12,000 FEET WITH NO SIGNIFICANT WEATHER AND/OR OBSTRUCTIONS TO VISIBILITY NCZ015>017-031-032-045>047-102-103-241800- NORTH COAST CITY SKY/WX TMP DP RH WIND PRES REMARKS EDENTON FAIR 73 63 70 SW10 30.20F ELIZABETH CITY FAIR 70 63 78 S16 30.18F KITTY HAWK FAIR 71 67 85 SW9G16 30.18F MANTEO PTSUNNY 70 61 72 W9 30.20F $$ NCZ045>047-081-094-103-104-241800- CENTRAL COAST CITY SKY/WX TMP DP RH WIND PRES REMARKS FRISCO CLOUDY 70 63 78 SW12 30.23F $$ NCZ095-097-098-100-101-241800- SOUTHERN COAST CITY SKY/WX TMP DP RH WIND PRES REMARKS BEAUFORT PTSUNNY 68 63 84 SW14 30.23F CEDAR ISLAND NOT AVBL JACKSONVILLE FAIR 76 64 66 W13 30.21F PINEY ISLAND NOT AVBL WILMINGTON LGT RAIN 71 65 81 W12 30.23F $$ NCZ011>013-027>030-043-044-078>080-089-090>093-098-241800- COASTAL PLAIN CITY SKY/WX TMP DP RH WIND PRES REMARKS AHOSKIE FAIR 71 61 71 S7 30.18F CLINTON CLOUDY 71 65 80 SW9 30.22F ELIZABETHTOWN NOT AVBL GOLDSBORO FAIR 72 62 69 SW13 30.19F GREENVILLE FAIR 72 61 68 SW8 30.21F HAVELOCK NOT AVBL KENANSVILLE CLOUDY 72 63 73 SW8 30.23F KINSTON CLOUDY 72 61 68 SW17G23 30.22F NEW BERN FAIR 74 63 68 W14 30.22F RICHLANDS CLOUDY 70 64 81 SW10 30.23F ROCKY MOUNT FAIR 73 61 65 SW10 30.19F WASHINGTON CLOUDY 72 61 68 SW10G18 30.21F WHITEVILLE PTSUNNY 75 62 64 SW8G16 30.23F $$ AMZ130-135-150-152-154-156-158-170-250-252-270-ANZ085-086-088-633-658-670-241800- MARINE OBSERVATIONS STATION/POSITION TIME TEMP WIND PRES WAVE SWELL AIR SEA DIR/SP/G HT/PER HT/PER (UTC) (F) (DEG/KT/KT) (MB) (FT/S) (FT/S) CHESAPEAKE LIGHT NOT AVBL 64 E VA BEACH 1650 54 50 230/ 12/ 14 1022.4 4/ 9 3/ 9 DUCK 1642 64 45 220/ 12/ 14 1022.0 2 E DUCK 1700 47 N/A 3/ 9 2/11 OREGON INLET 1642 63 53 200/ 13/ 14 1023.0 13E OREGON INLT 1648 49 N/A 3/ 8 3/ 8 HATTERAS CG 1642 69 61 240/ 7/ 11 1023.7 DIAMOND BUOY 1700 69 260/ 10/ 12 1024.0 CAPE LOOKOUT 1700 220/ 10/ 14 1024.4 BEAUFORT LAB 1642 66 60 220/ 4/ 8 1024.2 30 SE NEW RVR IN 1608 67 68 230/ 10/ 14 1025.0 30 SE NEW RVR IN 1700 68 N/A 4/ 8 2/11 27 SE WRIGHTSVLE 1608 69 68 230/ 8/ 14 1024.9 5 SE WRIGHTSVLE 1608 63 59 210/ 6/ 10 1024.5 225 S CAPE HAT 1650 72 73 180/ 12/ 14 1025.9 5/ 9 5/ 9 41 SE CHARLESTON 1650 70 70 240/ 4/ 6 1024.6 4/10 5/10 $$

USA.gov is the U.S. government's official web portal to all federal, state and local government web resources and services.